Change the Weather History Date:

Thursday, March 13, 2014

  Actual Average Record
Temperature  
Mean Temperature 71 °F 60 °F  
Max Temperature 82 °F 73 °F 89 °F (2013)
Min Temperature 60 °F 46 °F 26 °F (1956)
Degree Days  
Heating Degree Days 0 6  
Month to date heating degree days 26 91  
Since 1 July heating degree days 859 1358  
Cooling Degree Days 6 1  
Month to date cooling degree days 9 5  
Year to date cooling degree days 33 9  
Growing Degree Days 21 (Base 50)    
Moisture  
Dew Point 24 °F    
Average Humidity 19    
Maximum Humidity 25    
Minimum Humidity 12    
Precipitation  
Precipitation 0.00 in 0.02 in 0.97 in (1982)
Month to date precipitation 0.58 0.33  
Year to date precipitation 0.59 2.13  
Snow  
Snow 0.00 in 0.00 in 0.00 in (2002)
Month to date snowfall 0.0  
Since 1 July snowfall 0.6  
Snow Depth -    
Sea Level Pressure  
Sea Level Pressure 29.83 in    
Wind  
Wind Speed 11 mph (SSE)    
Max Wind Speed 21 mph    
Max Gust Speed 28 mph    
Visibility 10 miles    
Events      
T = Trace of Precipitation, MM = Missing Value Source: NWS Daily Summary

Daily Weather History Graph

Daily Weather History Graph

Search for Another Location

Airport or City:

Trip Planner

Search our weather history database for the weather conditions in past years. The results will help you decide how hot, cold, wet, or windy it might be!

Date:

Astronomy

Mar. 13, 2014 Rise Set
Actual Time 6:36 AM MST 6:30 PM MST
Civil Twilight 6:12 AM MST 6:54 PM MST
Nautical Twilight 5:43 AM MST 7:23 PM MST
Astronomical Twilight 5:15 AM MST 7:51 PM MST
Moon 4:06 PM MST (3/13) 4:37 AM MST (3/13)
Length of Visible Light 12h 42m
Length of Day
11h 54m
Waxing Gibbous, 92% of the Moon is Illuminated
Mar 13
Waxing Gibbous
Mar 16
Full
Mar 23
Last Quarter
Mar 30
New
Apr 7
First Quarter

Hourly Weather History & Observations

Time (MST) Temp. Dew Point Humidity Pressure Visibility Wind Dir Wind Speed Gust Speed Precip Events Conditions
12:53 AM 64.9 °F 23.0 °F 20% 29.90 in 10.0 mi ESE 5.8 mph - N/A   Haze
1:53 AM 64.0 °F 23.0 °F 21% 29.88 in 10.0 mi SE 13.8 mph - N/A   Haze
2:53 AM 63.0 °F 21.9 °F 21% 29.87 in 10.0 mi ESE 16.1 mph 24.2 mph N/A   Haze
3:53 AM 62.1 °F 21.9 °F 21% 29.87 in 10.0 mi ESE 18.4 mph 25.3 mph N/A   Haze
4:53 AM 61.0 °F 21.9 °F 22% 29.87 in 10.0 mi ESE 16.1 mph - N/A   Haze
5:53 AM 60.1 °F 21.9 °F 23% 29.87 in 7.0 mi ESE 17.3 mph - N/A   Clear
6:53 AM 60.1 °F 21.9 °F 23% 29.89 in 10.0 mi SE 16.1 mph - N/A   Clear
7:53 AM 63.0 °F 23.0 °F 22% 29.90 in 10.0 mi SE 17.3 mph - N/A   Overcast
7:55 AM 62.6 °F 23.0 °F 22% 29.99 in 10.0 mi SE 17.3 mph - N/A   Clear
8:53 AM 66.0 °F 23.0 °F 20% 29.91 in 10.0 mi SE 16.1 mph - N/A   Clear
9:53 AM 69.1 °F 24.1 °F 18% 29.89 in 10.0 mi SSE 18.4 mph - N/A   Clear
10:53 AM 73.0 °F 26.1 °F 17% 29.86 in 10.0 mi ESE 11.5 mph - N/A   Clear
11:53 AM 75.9 °F 26.1 °F 16% 29.83 in 10.0 mi South 6.9 mph - N/A   Clear
12:53 PM 80.1 °F 27.0 °F 14% 29.78 in 10.0 mi SSE 11.5 mph - N/A   Clear
1:53 PM 80.1 °F 27.0 °F 14% 29.75 in 10.0 mi WSW 12.7 mph 17.3 mph N/A   Scattered Clouds
2:53 PM 79.0 °F 26.1 °F 14% 29.75 in 10.0 mi West 13.8 mph - N/A   Scattered Clouds
3:53 PM 78.1 °F 23.0 °F 13% 29.75 in 10.0 mi WNW 15.0 mph 23.0 mph N/A   Mostly Cloudy
4:53 PM 77.0 °F 23.0 °F 13% 29.74 in 10.0 mi NW 8.1 mph - N/A   Scattered Clouds
5:53 PM 75.0 °F 25.0 °F 16% 29.75 in 10.0 mi NNW 10.4 mph - N/A   Scattered Clouds
6:53 PM 73.0 °F 25.0 °F 17% 29.75 in 10.0 mi North 4.6 mph - N/A   Clear
7:53 PM 71.1 °F 25.0 °F 18% 29.76 in 10.0 mi Calm Calm - N/A   Clear
8:53 PM 66.9 °F 26.1 °F 21% 29.78 in 10.0 mi South 5.8 mph - N/A   Clear
9:53 PM 64.9 °F 25.0 °F 22% 29.81 in 10.0 mi SW 4.6 mph - N/A   Clear
10:53 PM 63.0 °F 26.1 °F 25% 29.83 in 10.0 mi SW 4.6 mph - N/A   Clear
11:53 PM 61.0 °F 27.0 °F 27% 29.83 in 10.0 mi Calm Calm - N/A   Clear